Location: Wald
(31.7579°N, 86.6655°W)
Time: 01:44:12
(UTC+00:00)

Gblst 52 Del rocket - Visible Passes

Search period start: 24 October 2020 00:00
Search period end: 03 November 2020 00:00
Orbit: 805 x 1365 km, 51.5° (Epoch: 23 October)

Date Brightness Start Highest point End Pass type
(mag) Time Alt. Az. Time Alt. Az. Time Alt. Az.
24 Oct 5.1 11:11:09 10° SSW 11:16:32 53° SE 11:22:26 10° NE visible
25 Oct 6.1 10:20:14 10° S 10:24:55 29° SE 10:29:55 10° ENE visible
26 Oct 6.7 09:30:24 10° SSE 09:33:25 15° ESE 09:36:31 10° E visible
26 Oct 4.2 11:18:49 10° SW 11:24:23 77° NW 11:30:33 10° NE visible
27 Oct 4.6 10:27:23 11° SSW 10:32:35 62° SE 10:38:28 10° NE visible
28 Oct 5.5 09:38:58 26° SSE 09:40:55 34° SE 09:46:06 10° ENE visible
28 Oct 4.8 11:27:16 10° WSW 11:32:32 40° NW 11:38:19 10° NNE visible
29 Oct 6.5 08:50:21 17° ESE 08:50:21 17° ESE 08:53:06 10° E visible
29 Oct 4.2 10:37:22 26° WSW 10:40:30 65° NW 10:46:28 10° NE visible
30 Oct 4.2 09:48:33 74° SE 09:48:39 74° SE 09:54:29 10° NE visible
30 Oct 5.5 11:36:24 10° W 11:40:59 24° NNW 11:45:55 10° NNE visible
31 Oct 6.1 08:59:35 25° ENE 08:59:35 25° ENE 09:02:16 10° ENE visible
31 Oct 4.9 10:46:35 26° WNW 10:48:42 35° NW 10:54:10 10° NNE visible
01 Nov 4.5 09:57:28 50° N 09:57:28 50° N 10:02:24 10° NE visible
02 Nov 6.1 09:08:17 24° NE 09:08:17 24° NE 09:10:30 10° NE visible
02 Nov 5.6 10:55:15 18° NW 10:57:12 21° NNW 11:01:43 10° NNE visible
